• MPC Preparation (Info)

  • MPEC 2014-K44 : 2014 KL22

    The following Minor Planet Electronic Circular may be linked-to from your own Web pages, but must not otherwise be redistributed electronically.

    A form allowing access to any MPEC is at the bottom of this page.


    Read MPEC 2014-K43 Read MPEC 2014-K45


    M.P.E.C. 2014-K44                                Issued 2014 May 26, 00:21 UT
    
         The Minor Planet Electronic Circulars contain information on unusual
             minor planets and routine data on comets.  They are published
       on behalf of Commission 20 of the International Astronomical Union by the
              Minor Planet Center, Smithsonian Astrophysical Observatory,
                              Cambridge, MA 02138, U.S.A.
    
                 Prepared using the Tamkin Foundation Computer Network
    
                                  MPC@CFA.HARVARD.EDU
                URL https://www.minorplanetcenter.net/    ISSN 1523-6714
    
                                       2014 KL22
    
    Observations:
         K14K22L* C2014 05 24.40332 15 43 44.18 +27 43 02.4          21.1 VqEK044G96
         K14K22L  C2014 05 24.40730 15 43 43.80 +27 42 47.2          20.4 VqEK044G96
         K14K22L  C2014 05 24.41128 15 43 43.41 +27 42 32.0          21.1 VqEK044G96
         K14K22L  C2014 05 24.41526 15 43 42.96 +27 42 16.9          20.0 VqEK044G96
         K14K22L  C2014 05 24.90385 15 43 15.52 +27 11 05.2          19.6 VoEK044033
         K14K22L  C2014 05 24.90984 15 43 14.93 +27 10 42.8          19.6 VoEK044033
         K14K22L  C2014 05 24.95170 15 43 10.55 +27 07 59.1          19.7 VoEK044033
         K14K22L  C2014 05 24.95769 15 43 09.96 +27 07 36.7          19.7 VoEK044033
         K14K22L KC2014 05 25.95719 15 41 58.27 +25 58 28.2                qEK044J95
         K14K22L KC2014 05 25.97312 15 41 56.60 +25 57 18.6                qEK044J95
         K14K22L KC2014 05 25.98630 15 41 55.15 +25 56 20.4          20.8 RqEK044J95
    
    Observer details:
    033 Karl Schwarzschild Observatory, Tautenburg.  Observer B. Stecklum.  1.34-m
        f/4 Schmidt + CCD.
    G96 Mt. Lemmon Survey.  Observer R. A. Kowalski.  Measurers E. J. Christensen,
        A. R. Gibbs, A. D. Grauer, R. E. Hill, J. A. Johnson, R. A. Kowalski,
        S. M. Larson, R. J. Sanders, F. C. Shelly.  1.5-m reflector + CCD.
    J95 Great Shefford.  Observer P. Birtwhistle.  0.40-m f/6.0 Schmidt-Cassegrain
        + CCD.
    
    Orbital elements:
    2014 KL22                                                Earth MOID = 0.0311 AU
    Epoch 2014 May 23.0 TT = JDT 2456800.5                  MPC
    M 335.97736              (2000.0)            P               Q
    n   0.67045774     Peri.  199.19601     +0.09899290     +0.97380276
    a   1.2928708      Node    76.89723     -0.88328061     +0.18073513
    e   0.1973057      Incl.   12.13338     -0.45827477     -0.13799641
    P   1.47           H   23.8           G   0.15           U   8
    Residuals in seconds of arc
    140524 G96  0.1-  0.2-    140524 033  0.3+  0.0     140525 J95  0.5-  0.0
    140524 G96  0.2+  0.1-    140524 033  0.6+  0.5+    140525 J95  0.3+  0.1+
    140524 G96  0.3+  0.0     140524 033  0.5-  0.8-    140525 J95  0.2+  0.1-
    140524 G96  0.5-  0.3+    140524 033  0.1-  0.3+
    
    Ephemeris:
    2014 KL22                a,e,i = 1.29, 0.20, 12                  q = 1.0378
    Date    TT    R. A. (2000) Decl.     Delta      r     Elong.  Phase     V
    2014 04 26    15 54 44.9 +34 49 46   0.1949  1.1320   126.1    45.9    22.3
    ...
    2014 05 11    15 53 31.4 +34 38 44   0.1343  1.0952   126.6    47.7    21.4
    ...
    2014 05 19    15 48 55.4 +31 50 23   0.1028  1.0785   128.5    47.2    20.8
    ...
    2014 05 25    15 43 07.3 +27 05 38   0.07987 1.0676   131.7    45.1    20.2
    2014 05 26    15 41 54.3 +25 56 13   0.07617 1.0659   132.5    44.5    20.1
    2014 05 27    15 40 36.4 +24 38 15   0.07251 1.0643   133.4    43.7    19.9
    ...
    2014 06 02    15 30 43.0 +12 30 12   0.05211 1.0554   141.6    36.7    19.0
    ...
    2014 06 10    15 07 31.5 -24 50 52   0.03522 1.0463   151.6    27.4    17.9
    ...
    2014 06 25    08 28 54.7 -83 07 57   0.06463 1.0379   107.6    69.0    20.4
    
    A. U. Tomatic                (C) Copyright 2014 MPC           M.P.E.C. 2014-K44
    

    Read MPEC 2014-K43 Read MPEC 2014-K45


    MPEC number:

    Enter an MPEC number in one of the following forms:

    • 1997-B01 (the full form)
    • J97B01 (the packed version of the full form)
    • B01 (the abbreviated form)